sat.trackr.live / text

‹ back to catalog

STARLINK-3049

NORAD 49436 · 2021-104AE

PAYLOAD ACTIVE UNKNOWN

§ Identity

Operator
Country
US
Launch date
2021-11-13
Launch site
AFETR
Launch vehicle
Mass (kg)
RCS (m²)

Purposes: comms

External: N2YO · Heavens-Above · Gunter

§ Orbital elements

Epoch: 2026-09-19T22:55:45.757344Z

Period
93.79 min
Inclination
53.1627°
Eccentricity
0.0000819
Mean motion
15.35401728 rev/d
Perigee alt
459.2 km
Apogee alt
460.3 km
Semi-major
6,837.9 km
B*
2.9233e-5
RAAN
52.5626°
Arg perigee
89.5064°
Mean anomaly
270.6033°
Rev number
26,829

§ Raw data

STARLINK-30491 49436U 21104AE  26262.95539071  .00000640  00000+0  29233-4 0  99932 49436  53.1627  52.5626 0000819  89.5064 270.6033 15.35401728268292

JSON: /api/v1/satellites/49436 · /tle

For live sub-satellite position, see the globe view (requires WebGL).

§ Visibility from observer

Set your observer location to see the next 7 days of passes ≥ 10°. The values pass through the URL so the page stays shareable.

No JS? Fill the form by hand. The geolocation button needs JavaScript.